Location: Belmont
(13.0833°N, 59.6000°W)
Time: 03:04:12
(UTC+00:00)

Nadezhda 1 Rocket - Pass Details

Date: 17 September 2019
Orbit: 942 x 1005 km, 83.0° (Epoch: 14 October)

Event Time Altitude Azimuth Distance (km) Brightness Sun altitude
Rises 22:23:38 0° 168° (SSE) 3,625 6.8 -7.0°
Reaches altitude 10° 22:26:16 10° 161° (SSE) 2,672 6.1 -7.7°
Maximum altitude 22:31:57 42° 92° (E) 1,315 4.3 -9.0°
Drops below altitude 10° 22:37:36 10° 22° (NNE) 2,653 6.1 -10.4°
Sets 22:40:12 0° 16° (NNE) 3,596 6.9 -11.0°
